Wind_Speed
4 4 4 4 4 4 4 4 3 3 4 7 10 13 15 16 16 17 17 16 14 12 9 7 5 4 2 1 2 3 3 3 2 3 1 1 3 2 3 4 5 5 6 5 4 4 4 11 14 11 8 8 11 13 9 10 7 5 5 4 6 5 7 9 8 10 10 9 7 8 8 7 10 10 10 10 8 8 9 9 9 10 13 15 11 7 8 9
6 6 5 5 4 4 4 5 5 4 4 4 5 8 11 14 16 16 17 17 17 15 13 10 8 6 4 3 2 3 3 3 3 4 4 3 4 4 2 2 3 4 6 5 5 9 5 8 8 8 9 11 14 14 10 10 6 4 5 5 6 4 6 8 9 12 11 8 8 8 8 7 9 8 8 9 9 8 8 11 14 14 15 14 9 6 7 8
9 8 7 6 6 5 5 5 5 6 6 6 5 4 5 9 13 15 16 16 17 17 16 14 11 9 6 5 3 3 3 3 5 5 5 5 4 5 4 3 3 4 5 6 7 7 4 7 5 6 9 13 14 8 10 11 6 4 3 6 5 5 6 8 10 12 11 10 10 9 9 7 8 6 8 9 8 10 9 10 13 14 15 12 8 6 7 8
12 10 9 8 7 6 5 6 6 6 7 7 7 7 6 5 6 11 14 15 16 16 17 16 14 12 9 7 4 4 3 4 6 5 6 6 5 5 4 4 3 3 4 6 7 7 1 4 5 7 9 11 8 5 10 10 7 5 3 6 5 4 4 6 8 11 10 11 10 10 10 7 6 5 8 10 7 11 10 7 11 13 14 11 8 8 7 9
13 12 11 10 9 7 7 6 6 7 7 8 8 9 9 8 6 5 9 13 14 14 15 15 16 15 12 9 6 5 2 3 4 3 5 7 6 6 5 4 3 3 3 5 4 7 7 6 7 8 9 6 5 8 11 10 8 6 3 4 3 3 3 4 6 7 8 8 8 10 12 9 7 5 8 11 6 8 8 6 10 12 13 11 10 11 10 11
12 12 11 10 10 9 8 7 7 7 8 8 9 10 10 9 8 6 4 8 12 12 12 13 15 16 14 12 8 7 4 5 7 3 4 6 7 6 6 5 4 4 2 4 3 8 8 8 8 9 8 5 7 12 13 12 8 6 4 3 1 1 3 4 5 4 7 9 9 11 11 9 8 6 8 11 7 6 6 8 11 12 13 12 11 13 13 12
12 11 11 10 10 9 9 8 8 8 8 9 10 10 10 11 10 8 7 3 7 10 9 9 12 14 16 13 11 10 8 11 10 5 5 6 7 7 6 6 5 4 2 4 2 7 7 8 8 9 8 6 9 12 12 11 7 6 6 4 2 1 1 4 3 2 6 7 10 11 9 8 9 7 7 9 7 5 6 9 12 12 12 13 13 14 12 11
11 11 10 10 9 9 9 9 8 8 8 9 10 10 10 10 10 10 9 6 2 7 7 6 8 10 14 14 13 10 9 15 11 5 6 5 6 8 7 7 6 4 3 4 1 3 6 6 8 9 8 7 7 7 9 9 6 6 7 7 5 3 3 5 3 4 5 4 8 9 7 8 7 4 5 8 8 5 7 9 12 13 12 13 13 12 10 10
10 10 10 9 9 8 8 8 8 8 8 9 9 10 10 9 10 9 8 8 4 4 6 5 4 7 11 13 14 9 11 19 15 9 8 6 6 8 8 8 7 5 3 2 1 2 4 6 8 7 8 7 6 7 8 7 4 5 6 9 11 7 6 8 7 7 7 3 7 8 7 8 6 5 7 10 9 6 7 10 12 13 12 13 13 11 9 9
9 9 9 9 8 8 7 7 7 7 8 8 9 9 9 9 9 8 8 7 6 1 5 5 2 6 9 12 13 9 13 20 17 13 12 9 7 6 8 9 8 7 4 2 2 5 5 7 8 5 6 7 10 13 8 2 3 5 7 9 11 9 10 10 8 8 8 4 5 8 8 8 8 7 7 8 8 7 8 10 12 12 13 12 12 11 9 8
8 8 8 8 8 7 7 6 6 6 7 7 8 8 8 9 9 8 7 6 6 4 3 5 3 4 7 11 12 8 15 19 17 17 14 11 10 7 7 9 10 9 6 3 4 7 7 8 7 5 7 6 10 12 7 2 5 6 7 8 8 8 10 12 10 9 8 6 4 6 8 9 10 8 9 9 7 7 8 9 11 13 13 12 12 12 10 8
9 8 8 7 7 7 6 6 6 6 6 6 7 7 7 8 8 8 7 6 5 4 1 4 4 4 8 11 12 11 14 17 18 18 16 14 12 10 8 7 10 11 9 6 5 7 9 10 9 7 9 9 9 9 4 5 7 5 6 7 7 6 8 12 11 11 10 7 4 4 7 9 11 11 11 12 9 9 9 9 11 12 12 12 12 12 9 7
9 8 8 7 7 6 6 5 6 6 6 6 6 6 7 7 8 8 7 7 4 4 3 3 3 4 8 8 12 18 16 16 16 13 15 16 13 12 10 7 9 12 13 9 7 7 7 10 10 7 7 9 7 8 4 5 8 6 8 8 5 4 5 11 10 9 11 7 4 2 3 6 11 12 12 11 10 13 13 10 11 12 12 13 13 12 9 7
9 9 8 8 7 6 6 5 5 6 7 6 7 6 7 7 6 7 7 7 5 3 3 3 3 5 11 6 12 18 15 18 17 13 15 15 14 13 11 9 9 11 14 12 9 8 7 8 8 5 7 8 7 9 5 5 8 6 9 10 5 2 3 9 10 8 10 8 4 1 1 5 9 10 11 13 12 13 15 13 12 12 13 13 13 13 11 9
9 9 8 8 8 7 6 6 5 6 7 7 7 6 6 7 6 6 5 5 6 4 2 3 3 5 8 6 12 11 12 18 16 13 14 14 15 14 13 12 9 9 12 12 12 11 9 8 7 7 9 8 8 9 6 6 8 7 7 10 6 1 1 6 9 7 8 7 4 1 1 5 9 9 12 14 13 14 14 15 14 13 14 14 13 13 12 11
9 8 8 8 8 7 7 7 6 6 7 7 6 6 6 7 6 6 5 4 4 5 5 3 4 6 4 5 11 10 10 11 11 13 13 13 12 9 13 15 11 10 9 9 11 11 10 9 8 10 9 8 9 8 7 7 8 7 6 8 7 4 1 3 7 7 8 8 5 3 2 4 6 6 13 15 14 16 15 16 16 13 14 15 14 13 11 11
9 9 8 8 8 7 7 7 7 7 7 7 6 5 6 7 7 7 5 3 2 5 7 4 3 5 3 4 7 10 9 6 8 12 11 12 11 7 14 16 12 12 10 8 8 7 9 9 9 10 10 10 9 7 8 7 6 6 4 5 7 7 5 2 4 6 7 10 7 5 4 3 6 5 11 16 15 17 17 16 17 15 16 15 14 13 11 10
10 10 9 9 8 8 7 7 8 8 8 7 5 4 5 7 10 10 7 4 1 3 6 6 2 1 5 6 5 6 7 6 7 9 9 11 12 13 15 12 10 12 11 10 8 6 8 8 9 11 11 12 10 9 10 6 4 6 5 6 7 9 4 5 3 4 3 9 9 6 6 2 7 9 8 17 16 17 17 15 16 15 16 16 13 14 13 10
12 11 10 9 9 9 8 7 7 8 9 7 5 3 3 7 12 14 9 4 2 3 1 7 5 1 6 5 1 4 7 7 6 7 8 10 11 13 12 9 9 11 10 10 10 8 8 8 10 12 12 12 11 10 12 9 8 9 6 4 7 12 6 6 3 4 3 4 8 6 3 4 8 9 7 17 19 18 17 15 16 16 16 16 13 14 14 10
13 12 12 11 9 9 9 8 7 7 9 8 7 3 2 10 14 13 9 4 3 5 4 7 9 4 5 4 6 7 8 7 5 6 8 9 8 8 9 10 10 11 12 12 12 10 9 11 13 13 13 12 9 7 10 9 8 8 5 4 9 11 3 5 2 5 6 2 5 7 6 8 9 7 6 14 21 19 18 17 16 17 17 16 14 14 14 11
13 13 13 13 11 10 9 9 8 7 8 9 8 5 2 8 8 7 12 9 6 9 8 8 10 9 6 6 10 10 7 5 4 6 9 9 8 8 11 11 11 13 14 14 14 12 11 13 15 15 15 15 11 9 8 4 3 8 8 9 13 8 2 2 4 4 6 4 3 6 8 12 9 7 7 11 21 20 20 19 16 17 18 15 15 14 13 13
14 14 14 14 13 11 10 10 9 7 8 9 8 8 5 5 7 11 14 13 8 10 13 12 13 14 11 9 10 11 6 4 5 7 9 9 9 10 10 10 12 14 13 13 15 15 13 14 15 15 15 17 15 12 11 8 7 11 11 11 12 6 3 5 4 1 6 7 5 6 10 10 6 4 6 8 19 22 19 19 16 17 18 16 16 15 14 14
14 14 14 14 14 13 11 10 10 8 8 9 8 10 9 8 10 12 14 15 10 10 13 16 15 15 15 12 12 11 8 9 8 8 10 9 10 12 10 9 11 13 13 14 15 15 15 14 12 13 15 16 14 13 14 12 11 13 12 12 13 9 8 4 6 1 9 10 7 9 10 6 5 4 5 6 12 21 20 19 19 18 19 17 16 16 15 15
16 16 15 15 15 15 13 11 11 9 9 9 9 11 12 11 11 11 13 15 14 10 12 17 17 16 16 14 14 13 9 10 10 11 12 9 12 12 11 10 10 12 14 15 15 15 17 15 8 9 13 10 7 8 10 11 13 14 13 13 12 11 12 6 1 5 11 9 7 9 6 6 6 8 4 4 6 13 18 21 24 21 19 17 16 16 15 15
18 17 17 16 16 16 16 13 10 11 11 9 9 10 11 11 10 11 12 13 15 11 9 15 16 16 15 13 13 11 8 10 11 13 14 9 13 12 9 10 11 12 12 12 14 15 19 18 12 10 13 10 8 9 9 10 13 13 13 15 15 12 11 10 7 9 9 6 6 7 5 4 4 4 3 5 7 12 17 23 25 21 18 17 16 16 15 15
20 19 18 18 17 16 17 15 10 10 10 8 10 11 10 10 9 10 10 13 14 9 8 12 13 12 13 15 13 8 9 12 10 15 17 9 12 14 10 8 11 13 10 8 12 15 16 16 14 10 10 12 14 15 13 12 13 14 11 11 12 12 10 10 11 11 9 7 8 8 7 2 4 2 4 5 7 12 18 23 24 22 21 17 15 15 15 15
20 20 18 18 18 16 17 17 13 9 8 9 10 10 9 8 8 7 7 12 12 10 12 12 10 9 11 14 14 9 8 10 10 14 16 11 11 14 12 10 10 11 9 8 12 13 13 14 13 8 7 11 14 16 15 13 14 13 7 7 10 10 9 10 11 10 8 9 11 8 8 7 2 2 5 6 4 9 16 23 24 21 22 20 16 15 14 14
19 19 18 17 18 17 16 18 16 13 13 14 11 8 8 8 6 3 5 8 5 9 14 15 14 12 11 13 15 11 5 7 11 15 14 11 11 13 12 10 10 11 10 12 12 8 7 13 14 12 12 12 13 14 13 14 16 12 7 8 12 12 13 13 10 7 8 10 11 7 7 7 1 2 5 6 4 5 12 22 25 22 21 22 19 17 15 15
19 19 16 14 17 18 16 18 18 16 16 16 13 10 9 7 3 2 6 7 4 9 14 16 16 14 13 14 15 14 9 6 8 12 14 11 11 15 13 9 9 12 13 15 16 7 3 8 10 11 15 13 11 11 10 11 13 10 8 10 10 12 15 15 9 7 9 11 10 7 8 7 1 4 3 4 4 6 5 17 25 23 22 24 22 21 19 17
19 19 16 12 14 16 16 18 18 17 16 15 14 11 9 6 5 6 7 6 6 9 13 16 16 13 15 17 16 16 15 10 6 8 14 12 10 15 15 10 9 12 12 14 18 14 7 6 7 8 15 14 9 7 6 9 11 10 9 10 9 8 6 8 9 11 10 7 7 7 6 8 2 6 3 1 3 4 2 12 22 24 24 24 23 22 21 18
20 20 17 13 13 14 15 18 17 15 16 15 14 10 8 7 8 10 8 5 7 9 12 14 14 15 17 18 17 17 16 15 11 9 13 13 11 14 14 12 11 10 11 14 15 16 12 11 9 9 13 13 8 8 7 8 11 11 10 10 9 4 5 7 9 10 8 5 6 6 5 9 5 4 5 2 3 4 3 7 18 22 23 23 20 20 22 20
21 21 20 17 15 13 15 18 15 13 14 14 13 11 9 9 12 15 12 8 5 6 10 13 14 16 18 18 17 17 16 16 16 12 12 13 13 14 14 13 13 10 12 14 14 15 16 17 13 9 13 13 9 10 9 7 9 9 9 9 5 3 4 5 6 4 5 6 7 5 4 6 0 7 5 4 6 5 4 4 11 15 17 19 19 20 22 22
22 22 20 20 18 14 15 17 15 13 13 13 12 11 10 11 14 17 17 13 5 2 6 10 14 15 16 18 17 17 17 16 17 15 12 13 13 15 16 14 13 13 13 11 12 15 15 17 16 10 12 13 11 12 10 6 8 10 9 7 3 1 2 4 4 3 4 5 5 1 4 5 5 10 7 6 7 6 3 3 6 8 11 14 19 22 24 24
21 21 20 20 19 16 14 16 16 15 13 13 13 11 14 16 16 15 17 17 12 7 5 5 11 14 15 18 17 17 18 15 17 16 13 14 15 15 16 16 16 17 16 11 13 15 12 12 18 14 13 15 12 14 9 4 7 10 8 7 7 7 7 5 3 4 3 3 4 2 3 8 3 11 10 7 6 6 6 3 2 4 7 10 14 20 23 25
18 19 18 17 17 16 14 15 17 16 15 15 14 14 18 19 17 16 16 16 16 14 11 10 11 13 16 17 16 17 19 16 16 18 15 15 16 16 15 17 18 17 18 15 12 11 10 7 16 14 9 13 10 12 11 8 7 7 6 9 9 9 10 8 6 7 7 5 5 5 2 4 11 14 11 7 5 7 8 5 2 2 3 6 10 15 20 23
16 16 16 15 14 13 13 15 16 16 16 16 16 18 22 19 16 16 13 11 14 16 10 12 13 14 15 16 16 17 18 16 15 17 18 17 17 17 16 16 17 17 18 17 10 6 8 2 15 13 6 9 9 10 12 10 6 3 6 9 7 3 5 9 8 6 7 4 3 3 3 9 14 11 6 5 6 6 6 6 5 4 3 4 7 10 17 22
14 14 15 13 11 10 11 13 15 15 16 17 19 21 21 18 17 18 14 10 13 15 8 9 13 15 15 15 15 15 16 16 14 15 17 17 18 19 17 15 16 16 17 19 13 8 7 2 11 10 6 9 9 9 12 10 6 6 4 3 5 5 4 6 5 3 3 3 1 2 3 5 9 7 4 5 6 4 4 6 6 7 6 3 4 7 13 20
11 12 13 12 10 8 9 12 13 15 15 18 22 23 20 18 18 18 17 14 15 15 12 11 11 12 13 15 15 15 15 15 14 15 15 16 16 16 16 16 16 15 15 17 15 11 9 8 6 9 10 10 10 9 11 12 10 11 6 6 5 7 4 4 4 4 2 3 1 1 2 3 8 6 5 6 5 2 5 7 5 7 8 6 6 5 7 14
10 10 10 8 6 7 8 11 12 14 16 19 22 22 20 20 19 18 17 14 12 15 16 15 13 11 12 14 15 15 17 16 14 13 13 14 11 11 14 16 15 16 13 14 16 13 12 11 8 8 8 7 11 10 12 13 13 12 11 8 7 6 4 4 6 5 2 3 2 2 3 6 11 7 6 7 2 2 1 4 4 5 6 5 6 5 4 9
7 5 6 6 4 6 7 9 11 15 18 20 21 19 17 17 17 18 18 14 10 13 15 15 15 14 12 14 17 17 18 18 15 14 13 12 8 6 10 13 13 14 14 14 17 14 11 10 8 7 6 4 9 12 12 12 12 11 11 10 9 8 7 8 9 7 6 6 3 3 2 8 11 5 5 6 4 1 0 3 4 6 6 5 8 7 4 4
4 4 8 12 8 7 8 8 12 15 17 19 19 18 18 16 15 16 16 16 15 15 16 16 17 17 15 15 17 18 17 17 17 17 16 15 13 9 8 12 11 11 13 14 16 15 12 10 10 10 10 9 9 11 12 12 11 11 11 9 8 8 8 7 7 6 8 8 5 4 2 9 10 5 4 5 9 8 4 4 6 9 9 8 9 8 4 2
3 5 10 19 12 7 7 8 10 12 15 18 18 17 17 16 16 15 12 12 13 14 16 19 20 20 18 15 14 14 17 18 18 19 18 16 16 12 10 12 12 13 16 15 15 17 15 11 10 12 13 11 8 7 11 11 6 8 11 8 7 8 8 8 7 5 8 9 6 7 4 4 7 8 5 5 8 9 7 7 9 10 9 6 6 5 4 3
5 3 10 19 15 9 9 9 10 13 15 16 16 16 17 16 15 15 14 12 12 12 14 17 19 20 18 15 14 13 14 16 17 19 18 17 16 13 11 12 12 14 17 14 12 16 16 14 12 11 10 11 9 6 9 8 4 7 11 9 9 9 8 8 8 6 8 10 8 8 4 4 6 6 5 5 6 8 8 7 8 5 6 6 6 4 6 4
7 5 6 12 11 7 11 12 11 14 15 14 15 16 17 17 15 14 14 15 15 14 14 15 17 19 18 16 16 15 13 13 15 17 17 17 16 14 11 11 12 12 13 13 11 12 14 14 13 11 8 9 10 8 8 9 9 10 11 9 9 9 9 9 8 6 8 9 9 10 3 5 4 2 4 6 8 10 9 7 8 8 7 8 8 8 9 6
6 4 2 9 11 10 9 13 12 13 13 12 14 15 16 18 17 16 16 16 17 17 16 15 15 16 18 18 18 18 16 14 15 17 18 18 16 15 12 11 12 12 11 13 11 9 10 13 14 12 10 7 8 8 8 9 9 9 11 9 8 8 8 8 7 7 8 7 6 8 3 5 3 3 6 8 7 8 10 10 11 13 12 10 9 10 10 8
3 3 4 9 12 12 11 11 13 14 14 12 11 11 13 15 16 16 17 17 17 17 17 17 15 15 17 19 20 20 20 19 17 17 18 19 19 17 16 15 14 14 15 15 11 10 13 13 14 14 13 11 9 7 8 10 8 7 9 9 8 8 8 7 8 8 6 6 5 3 2 3 2 2 3 6 4 5 9 10 11 12 11 10 10 10 10 9
3 2 7 8 10 10 10 9 11 14 14 13 13 11 11 13 14 15 16 14 14 16 17 17 16 16 16 17 20 21 21 20 21 21 20 19 20 19 18 18 16 16 20 19 14 13 15 13 13 15 15 15 13 9 9 12 11 10 11 10 9 8 6 6 10 8 7 7 6 1 3 5 6 4 5 6 5 5 7 8 10 12 10 10 11 11 11 11
8 6 4 8 11 12 10 11 12 13 14 14 14 13 12 12 12 12 13 12 10 13 16 17 17 18 18 17 17 19 20 19 20 23 22 20 21 21 16 16 16 16 20 20 17 16 16 15 14 14 15 16 16 14 13 13 12 13 12 10 9 8 6 7 10 9 8 9 8 5 5 5 5 6 6 6 6 5 6 10 14 15 13 12 12 11 12 13
11 14 14 13 16 16 15 15 13 12 12 13 15 15 14 14 14 12 14 13 10 10 13 16 16 17 19 19 17 17 18 18 19 21 22 22 23 22 17 15 16 15 16 18 19 18 18 19 17 16 16 15 15 16 15 14 16 16 14 11 10 10 10 9 10 9 9 11 9 8 7 5 5 6 4 3 3 4 5 9 13 14 13 13 13 11 12 12
13 19 21 20 20 21 21 17 13 12 13 14 15 16 14 15 16 15 15 16 14 12 13 14 15 16 18 19 21 21 19 17 17 18 19 21 23 23 22 19 16 16 16 17 18 18 19 19 18 17 17 15 16 17 16 16 17 17 15 14 12 10 9 8 9 9 9 9 8 7 7 8 8 8 7 8 9 8 8 8 10 13 14 13 12 11 11 12
18 19 19 19 20 21 22 18 12 13 15 14 15 16 14 15 16 16 17 17 16 16 14 13 13 15 17 18 20 22 20 18 19 19 17 19 20 19 20 19 16 15 15 17 17 18 19 19 17 16 16 15 15 15 15 16 16 16 16 16 14 13 11 9 9 9 8 7 7 7 7 6 6 7 9 11 9 7 7 5 8 13 14 12 11 10 11 11
19 15 14 18 21 20 19 16 13 14 15 14 15 15 15 15 15 15 18 17 15 17 16 13 13 12 12 13 13 15 14 14 18 19 17 17 19 19 18 16 14 15 14 15 18 19 19 20 17 15 16 16 15 15 15 15 15 15 16 16 14 14 13 11 11 11 10 8 8 8 5 3 4 5 6 6 5 5 6 7 10 12 11 11 10 10 11 11
Wind_Direction
37 28 24 24 28 29 24 21 7 330 284 262 254 249 245 243 241 240 240 240 241 243 244 246 250 251 252 269 278 268 262 265 260 255 232 165 177 153 95 55 41 44 45 51 37 49 51 5 356 347 337 275 302 346 4 4 359 3 32 93 120 122 153 165 166 162 153 153 158 128 128 132 120 112 96 97 107 112 108 110 117 121 144 169 174 158 135 133
42 36 30 24 26 24 21 24 22 18 1 332 291 265 253 248 244 242 240 240 240 239 240 242 244 247 248 253 283 288 279 273 258 249 234 211 203 201 212 0 1 4 25 20 30 45 16 330 326 317 308 278 304 333 354 359 346 353 40 105 131 150 170 171 171 164 149 156 165 129 132 130 111 111 103 110 118 118 114 114 121 127 144 168 173 151 142 137
44 41 36 30 28 22 19 20 21 20 15 13 1 335 291 261 249 245 241 241 240 238 239 238 240 243 246 248 264 285 313 304 260 246 232 226 216 217 238 271 314 334 5 3 30 46 318 312 329 316 317 300 301 329 359 355 352 355 47 93 124 172 181 174 175 165 148 159 166 138 139 126 107 114 115 126 137 130 124 125 130 134 145 160 159 148 147 140
45 43 40 36 31 25 21 18 18 19 16 16 12 9 358 324 277 252 243 242 240 239 237 235 237 238 240 244 251 266 313 318 271 240 222 229 230 227 246 252 280 318 349 359 33 62 11 330 331 320 333 319 307 2 359 346 358 1 49 92 118 164 178 177 173 163 151 161 162 137 129 121 130 138 135 142 137 123 127 146 145 146 153 156 152 147 149 147
43 42 41 38 35 31 25 21 19 17 16 17 13 12 8 3 350 294 252 242 240 240 238 235 235 233 237 237 239 247 277 306 258 210 217 230 238 233 245 242 251 287 344 352 13 55 37 349 332 320 328 328 326 348 353 0 7 350 39 88 108 145 161 187 188 165 150 154 145 134 128 131 156 148 144 147 118 114 130 156 157 158 158 157 153 146 150 152
40 40 40 38 36 33 28 25 21 18 17 15 14 14 14 12 9 0 311 248 237 240 240 236 233 230 233 231 236 231 225 255 238 238 250 239 243 238 245 243 244 266 337 335 355 48 15 322 324 324 322 315 310 333 354 12 14 348 5 54 55 201 168 172 205 164 135 142 136 150 143 132 151 134 142 146 114 112 134 150 158 162 160 157 152 149 154 156
38 37 37 36 34 31 29 26 23 20 16 14 14 15 17 19 17 16 11 310 237 234 238 241 234 228 228 227 232 226 241 260 243 256 278 250 244 239 246 246 248 265 312 306 45 45 346 314 324 319 326 325 314 334 359 5 13 8 8 29 53 307 68 127 188 122 121 145 140 152 144 133 160 143 134 137 115 115 134 151 157 158 162 158 154 157 157 155
34 34 34 33 31 29 27 24 21 19 14 14 12 14 16 19 21 20 21 18 264 224 228 241 235 226 225 223 227 228 252 255 234 240 275 267 249 240 246 246 251 265 295 291 61 24 309 317 333 326 339 345 327 340 359 357 8 20 20 22 26 17 9 54 56 49 83 141 145 148 144 147 169 159 135 125 119 134 140 147 155 158 162 157 158 165 159 157
31 31 30 29 29 26 23 19 17 13 11 11 9 13 14 16 21 22 24 25 26 216 215 226 236 223 217 216 219 219 246 249 239 242 257 267 260 242 242 245 252 259 277 299 9 319 290 318 327 332 337 330 315 329 345 337 339 1 18 29 36 38 18 36 45 44 60 106 157 166 168 160 164 156 140 121 123 146 146 148 158 161 160 160 163 169 169 164
26 27 26 27 26 23 21 15 12 8 6 7 7 11 12 16 18 22 29 31 33 33 204 199 220 208 205 210 208 212 246 254 253 247 245 251 258 247 240 242 250 255 258 286 305 279 281 313 314 322 339 321 304 324 353 327 313 0 14 34 43 35 20 28 38 47 62 84 162 184 180 169 174 155 125 115 134 154 150 154 163 162 162 168 166 166 177 169
20 20 19 21 21 21 19 11 6 1 0 1 3 7 9 16 16 20 30 36 42 39 191 193 203 191 196 197 191 222 256 258 255 246 242 244 246 249 247 239 242 248 241 247 286 280 279 292 291 300 330 319 302 324 5 338 323 358 7 21 29 25 20 22 31 47 61 78 131 184 183 179 188 171 147 142 146 158 157 163 169 166 167 173 166 168 181 172
11 10 11 11 13 15 14 8 359 352 352 352 354 0 3 12 17 20 24 33 51 52 102 183 192 185 189 184 190 228 251 251 252 245 239 242 242 243 253 245 239 240 235 228 252 284 290 280 273 290 314 315 309 324 335 288 310 343 359 5 11 10 17 21 30 43 47 61 84 153 182 196 199 192 176 162 158 168 170 174 175 171 170 174 170 174 186 179
4 2 1 360 1 2 4 2 353 345 343 341 343 349 355 2 12 17 20 24 36 60 76 166 182 182 175 172 217 231 237 248 257 255 244 240 240 240 245 250 243 239 240 234 220 245 272 269 270 280 303 309 310 321 315 273 292 319 342 340 342 327 341 4 13 31 36 38 39 108 179 226 213 204 192 179 183 176 169 177 182 177 175 179 176 173 184 188
358 356 353 351 350 349 350 348 343 340 334 334 336 338 347 353 0 7 14 19 17 46 84 139 132 176 174 187 246 240 245 256 261 264 250 239 237 240 241 247 251 243 244 246 239 246 260 267 274 284 300 298 294 310 304 254 271 292 318 313 314 307 298 343 357 16 22 23 20 63 163 266 247 224 199 189 199 187 171 172 183 186 180 182 179 173 179 184
351 350 347 344 342 341 339 336 330 330 330 331 334 336 346 346 349 354 3 16 10 18 61 124 133 179 180 244 268 264 259 256 259 255 244 237 234 239 243 242 247 248 247 250 251 256 265 272 274 280 295 291 281 299 291 265 270 260 287 302 309 354 293 340 350 355 359 14 26 3 238 279 271 239 208 199 198 198 187 171 178 192 186 183 180 182 187 178
339 340 342 338 337 336 331 329 322 320 324 330 335 341 347 349 350 343 345 6 19 34 46 97 153 160 146 265 278 295 275 254 256 250 238 231 228 243 251 240 238 247 250 251 254 258 262 267 271 272 280 282 275 283 283 288 289 262 269 306 318 318 259 343 353 358 350 349 3 345 283 270 283 237 205 206 197 197 196 174 174 192 192 188 182 188 197 177
328 327 331 330 332 332 326 324 318 315 318 325 337 344 353 3 3 351 341 340 26 56 43 50 132 167 195 286 311 323 296 255 241 244 240 224 205 224 247 238 235 242 247 252 254 258 264 264 268 269 267 270 272 273 271 277 301 288 275 304 316 301 252 188 16 18 352 324 327 345 336 262 272 267 201 201 199 194 193 174 173 192 193 191 187 186 199 187
320 319 320 321 323 325 324 320 314 311 312 319 331 344 8 21 12 355 333 317 292 93 44 15 43 221 289 310 338 323 278 241 234 234 235 222 204 216 234 234 236 243 247 255 256 250 257 259 263 267 263 257 247 250 261 258 284 279 269 291 308 306 265 149 72 20 353 310 303 323 343 281 270 290 215 195 196 192 188 172 174 195 194 193 192 184 201 204
313 313 312 312 313 314 317 316 309 306 305 311 320 325 28 21 3 347 322 302 261 184 63 326 296 261 328 324 223 238 238 238 246 228 226 225 217 222 225 219 232 241 242 249 253 245 245 246 247 252 255 249 235 247 261 248 248 257 262 289 295 302 294 144 114 3 12 301 291 299 321 303 299 304 237 197 192 193 193 177 174 193 194 193 195 186 202 211
306 306 307 306 305 305 307 310 304 301 297 301 309 288 5 4 357 344 314 279 265 239 215 274 270 254 318 290 198 223 250 252 241 218 226 221 211 218 217 213 224 233 231 235 239 231 232 242 242 243 248 247 245 283 281 247 246 274 297 309 283 293 315 135 150 329 341 332 302 307 308 312 310 308 271 203 194 199 199 181 173 190 195 191 194 192 195 202
299 298 301 300 300 298 296 302 299 298 292 292 300 276 307 358 345 302 287 280 287 285 259 241 247 252 267 236 226 249 271 273 231 213 226 211 188 199 214 214 215 226 227 229 239 229 223 242 246 246 252 254 264 309 311 255 276 305 299 288 280 287 331 247 249 300 335 346 313 305 300 298 296 304 299 214 201 207 200 181 175 191 196 190 192 197 190 194
292 291 293 292 295 293 288 293 291 293 287 283 291 273 261 312 275 253 274 279 260 262 266 248 233 239 240 219 241 259 240 238 238 215 218 202 183 191 209 218 213 224 227 224 240 232 218 241 249 247 255 261 269 291 295 276 282 290 282 275 273 282 297 244 200 157 335 330 302 295 299 286 274 309 303 230 206 207 199 184 184 194 195 191 191 196 191 190
285 284 284 285 287 287 284 283 282 285 283 277 279 270 266 277 269 258 272 280 261 236 245 246 232 232 234 218 233 252 223 226 233 212 216 198 182 188 199 219 216 223 226 216 231 234 223 237 243 238 249 259 262 270 277 271 268 272 268 268 270 282 297 239 155 10 328 329 300 289 303 265 231 291 297 265 218 209 204 189 191 198 197 193 189 196 196 193
278 277 277 278 279 281 280 275 275 279 278 276 272 268 272 276 277 275 276 281 276 254 232 237 233 230 232 219 233 249 226 223 222 214 227 201 182 196 203 219 226 227 231 220 224 239 241 243 251 248 254 265 267 264 266 255 255 262 253 255 268 280 293 282 180 349 334 324 295 291 298 198 227 304 311 303 274 233 218 199 193 192 196 196 189 199 200 195
276 273 272 272 272 274 275 271 270 272 271 274 271 269 274 276 281 286 289 292 285 267 225 223 227 228 224 210 224 239 215 221 220 214 233 212 183 200 212 223 231 229 236 229 222 241 250 252 268 267 259 268 269 265 265 252 257 266 257 254 253 252 274 283 290 324 323 298 296 307 310 164 178 315 290 257 271 245 222 206 198 186 189 198 190 198 199 195
279 273 272 270 267 267 269 269 264 264 274 277 264 262 271 275 282 289 295 296 282 254 207 211 220 218 205 202 206 206 213 227 217 211 232 231 188 200 220 226 231 230 237 241 233 244 249 248 258 259 253 259 255 255 258 258 262 262 269 276 253 231 249 276 280 290 300 302 303 293 295 296 161 197 282 273 255 233 217 209 205 189 182 190 189 199 201 197
283 276 273 271 269 262 262 265 257 246 255 260 254 258 269 269 277 298 305 288 263 214 194 195 204 196 184 203 202 183 215 216 191 202 223 233 196 199 225 224 227 238 236 247 243 240 242 244 253 254 254 262 256 252 247 245 256 259 273 292 270 247 248 264 269 277 299 305 293 273 276 294 222 198 314 311 270 232 215 209 207 193 182 184 189 202 205 199
288 281 275 273 272 264 258 260 257 247 243 249 259 266 266 261 260 291 302 285 240 188 200 198 205 205 184 202 199 181 205 188 184 200 206 219 197 193 226 228 232 242 228 240 240 212 226 242 246 246 248 257 253 248 242 233 240 252 274 277 268 270 278 286 284 287 306 293 282 271 265 286 93 107 330 324 303 260 215 207 204 194 187 189 189 193 203 208
289 285 280 276 273 269 263 258 256 251 248 252 261 261 257 255 232 242 270 267 215 194 208 206 212 209 186 197 198 192 209 198 204 209 198 215 202 190 217 231 241 248 232 239 242 228 257 243 237 240 235 238 242 243 247 239 236 248 287 298 273 255 273 297 308 303 298 283 287 291 268 283 126 153 297 320 304 307 237 206 201 195 194 195 191 188 192 204
285 283 282 282 277 273 267 261 256 252 251 252 253 251 249 228 203 237 243 232 224 204 204 214 216 201 186 197 202 202 211 207 204 200 193 213 211 200 221 234 238 252 243 239 243 250 272 242 233 238 227 235 260 261 247 245 248 259 282 290 270 243 266 303 309 304 292 270 282 296 282 294 276 156 156 230 257 317 278 200 198 198 199 201 201 198 193 195
280 279 280 284 282 278 267 261 258 251 249 249 246 243 234 210 214 238 233 232 244 202 198 217 210 197 196 201 206 206 210 211 203 195 195 204 213 213 227 233 227 245 246 235 238 243 241 232 241 249 234 241 271 265 250 245 249 259 265 265 269 315 2 313 304 306 290 273 280 278 280 293 296 131 130 139 122 63 51 181 194 200 203 207 210 209 206 203
278 276 278 282 282 278 265 258 256 247 243 241 238 229 213 213 223 228 236 257 251 192 210 218 198 199 203 204 214 207 206 216 207 201 206 208 215 216 221 227 218 222 231 225 223 225 227 229 231 240 235 233 245 244 235 226 225 234 245 250 263 357 356 287 291 292 247 252 266 270 295 288 10 101 121 111 100 102 78 139 182 198 203 210 217 216 214 212
279 277 278 279 278 275 262 255 249 239 236 233 228 214 205 226 231 225 236 250 252 245 250 218 196 203 203 205 219 209 206 219 208 204 215 219 224 219 220 230 224 228 236 237 234 221 220 221 214 221 221 211 230 235 214 200 208 216 233 238 211 136 292 261 258 273 236 242 258 298 330 279 141 112 127 128 119 136 126 118 165 188 198 206 215 217 215 213
281 279 278 277 275 271 256 249 242 233 230 224 216 202 207 230 235 229 237 243 246 261 266 220 201 202 203 211 219 210 210 219 208 208 218 220 226 224 222 225 227 237 244 257 254 227 218 209 198 210 211 193 218 235 220 219 218 217 232 225 201 209 247 275 297 304 298 288 276 223 292 290 163 127 131 128 123 136 139 147 162 168 188 201 207 212 213 211
284 283 283 278 273 268 251 240 236 229 224 215 206 206 216 229 233 235 243 243 251 257 238 226 218 206 207 217 226 217 215 220 208 208 219 222 225 228 226 223 223 233 239 252 262 248 273 246 182 190 200 180 205 229 225 248 236 220 230 224 219 220 239 270 300 296 291 295 278 239 234 49 92 118 134 140 149 148 146 164 169 120 182 207 204 208 213 212
290 289 287 280 272 266 248 233 229 226 221 208 206 218 224 229 230 236 246 247 270 284 254 215 216 221 219 216 225 223 218 229 218 209 223 228 229 234 233 227 221 222 232 245 253 250 292 302 150 160 178 180 209 223 213 238 258 225 231 235 238 225 248 276 290 288 288 293 281 258 171 114 106 113 135 149 156 152 140 147 158 175 213 215 201 205 210 214
297 295 293 287 273 259 242 229 223 223 217 205 212 226 230 237 240 242 253 261 281 298 284 223 214 224 230 219 219 219 216 229 225 214 228 231 231 235 234 234 225 216 226 239 251 250 254 178 144 170 216 203 217 231 214 223 237 206 218 282 261 243 257 278 290 296 282 272 277 284 241 157 128 137 159 143 142 153 148 138 152 190 212 208 193 200 203 212
302 298 295 289 275 258 237 227 220 218 214 209 220 231 232 239 245 247 257 270 275 273 268 257 226 212 232 233 222 211 207 220 220 215 232 239 233 226 224 232 224 214 224 235 248 253 231 226 202 208 235 219 206 233 230 216 215 219 250 331 280 256 250 215 258 315 306 275 307 309 280 74 98 131 149 134 143 174 166 161 171 197 204 200 196 203 201 212
311 309 301 286 271 263 239 226 220 213 211 214 225 235 237 240 243 245 256 272 267 249 246 256 249 232 239 244 239 221 204 213 223 219 231 238 229 212 214 224 216 205 213 224 232 237 222 223 231 221 237 218 187 212 233 214 206 225 254 281 265 258 256 239 277 316 320 268 273 215 211 100 97 114 109 105 104 359 123 189 210 198 201 204 195 200 206 214
326 329 291 281 289 276 249 225 220 212 212 220 228 238 244 248 250 249 256 265 258 241 239 248 254 250 246 246 249 237 211 206 217 226 233 226 219 231 217 216 216 201 200 218 233 246 236 211 216 227 236 226 199 210 229 220 206 214 234 245 243 243 252 265 278 286 288 291 304 278 251 95 96 125 131 126 164 160 84 268 248 195 186 181 178 195 226 221
21 43 285 284 302 290 261 228 223 218 219 228 235 241 246 250 255 255 255 253 247 245 245 249 252 255 263 265 256 244 233 226 222 227 238 224 216 237 211 195 214 204 192 214 230 240 240 210 206 223 222 234 234 217 224 227 212 217 234 240 245 255 263 270 271 280 296 306 330 318 326 92 110 177 193 176 195 201 210 238 220 193 184 184 180 191 226 218
109 75 288 281 287 283 258 231 229 228 229 236 239 242 248 249 253 257 254 248 244 244 248 252 254 257 267 276 264 245 243 246 232 220 232 232 220 230 218 193 209 212 198 207 218 225 239 241 231 225 218 234 251 221 225 233 209 221 243 250 256 252 248 258 272 292 295 291 293 286 277 129 158 206 231 231 226 233 229 219 217 191 169 194 208 194 220 235
226 228 272 276 280 270 246 229 229 232 234 243 246 246 248 246 248 252 248 247 248 249 249 249 251 253 254 258 263 258 257 259 240 214 221 234 226 230 230 199 203 222 212 209 212 212 226 244 246 235 223 237 251 231 229 243 249 253 252 251 261 259 249 254 263 273 280 280 286 285 266 159 179 216 241 245 246 249 240 239 253 226 182 225 256 258 260 267
273 266 250 268 284 269 234 226 230 238 239 243 247 247 248 246 245 248 247 247 249 250 253 249 245 247 245 244 253 260 268 271 252 227 227 237 229 225 223 196 200 225 223 220 222 213 215 224 233 242 233 227 237 231 224 227 231 248 252 238 247 270 282 281 284 287 280 282 293 297 305 125 155 274 307 288 284 279 267 260 263 261 252 249 255 262 266 270
291 317 243 257 291 310 264 231 235 259 266 261 252 249 251 248 246 248 248 249 249 248 251 252 245 243 242 242 246 251 255 261 259 246 239 243 241 230 217 202 206 220 227 228 226 228 230 215 212 236 243 225 230 231 231 236 230 240 255 247 239 257 264 271 288 285 278 289 293 289 329 75 81 337 329 316 297 273 271 277 269 257 251 254 259 259 262 265
274 358 333 270 278 301 288 244 239 261 272 274 269 261 256 251 249 249 245 246 249 246 246 249 247 244 241 238 241 245 245 247 253 251 243 242 242 234 222 215 214 219 236 245 239 245 258 235 212 228 242 236 235 227 224 242 248 243 247 245 243 247 246 256 273 277 294 316 300 280 2 3 298 237 280 316 311 248 265 291 289 267 250 256 270 267 268 271
182 64 352 302 259 255 264 251 248 260 262 260 264 268 264 257 255 250 239 239 248 244 242 247 245 242 240 236 238 241 239 239 242 246 250 247 241 238 230 219 217 225 238 250 253 250 259 255 227 225 233 234 238 238 223 230 242 243 238 236 232 230 231 254 268 277 305 301 280 341 12 299 286 268 262 291 296 260 267 280 280 278 272 267 270 270 275 277
200 210 289 292 259 243 254 263 253 249 250 252 255 262 265 261 259 248 229 231 248 243 240 244 243 241 241 239 240 240 237 236 235 237 245 247 247 251 240 215 217 233 237 241 245 241 244 252 245 237 233 229 235 241 232 229 237 239 244 255 250 234 235 259 271 278 289 284 279 308 326 301 300 300 287 298 299 268 265 276 279 286 288 277 273 276 281 283
235 238 230 234 238 231 238 261 266 252 250 255 256 259 262 259 258 250 233 229 238 236 234 241 243 242 242 242 243 242 238 236 235 235 238 242 249 255 248 225 221 228 231 234 234 231 236 246 250 249 242 230 232 241 239 240 244 241 244 260 260 248 246 255 269 274 271 275 282 295 305 303 292 284 266 271 281 246 251 284 291 289 284 278 276 277 279 282
246 248 237 229 231 228 230 249 275 276 263 260 260 260 260 257 255 253 245 239 240 240 237 241 248 247 242 241 238 238 239 240 241 241 239 241 244 245 245 243 235 224 220 226 229 226 229 238 245 249 249 243 240 244 244 245 247 246 249 259 263 260 253 248 263 274 269 272 287 296 298 287 271 263 255 255 259 258 262 278 281 276 275 277 277 278 279 281
246 249 244 238 239 239 238 245 269 279 266 258 259 260 257 254 253 254 254 249 244 244 240 240 252 253 246 244 241 236 237 242 246 250 251 248 248 247 244 246 249 243 225 216 221 223 223 230 236 239 245 249 245 242 244 248 252 253 251 252 255 263 269 267 271 279 274 274 292 297 298 293 272 266 280 287 284 274 271 264 257 264 272 279 281 282 280 279
254 253 252 251 248 245 245 250 262 270 265 258 258 259 255 255 254 250 252 252 241 239 241 243 256 263 254 253 249 238 238 246 247 251 255 249 245 248 249 250 261 271 259 229 221 224 224 227 230 232 238 245 242 238 240 244 250 257 255 250 249 256 262 263 263 267 265 265 275 280 285 316 300 279 279 282 262 245 253 254 252 261 273 280 284 285 282 281
Height
3159 3158 3158 3158 3158 3158 3157 3157 3157 3156 3156 3156 3156 3156 3157 3157 3157 3158 3159 3159 3160 3160 3161 3161 3161 3162 3162 3162 3161 3161 3161 3161 3161 3161 3161 3161 3161 3160 3160 3160 3160 3160 3159 3159 3158 3157 3156 3158 3160 3161 3163 3161 3160 3162 3163 3163 3163 3162 3161 3160 3159 3159 3158 3159 3159 3159 3159 3160 3160 3159 3160 3161 3160 3161 3161 3162 3164 3164 3164 3164 3164 3164 3163 3163 3163 3163 3164 3164
3159 3159 3159 3159 3158 3158 3158 3157 3157 3157 3156 3156 3156 3156 3156 3156 3156 3157 3157 3158 3159 3159 3160 3161 3161 3161 3162 3162 3162 3161 3161 3161 3161 3161 3161 3161 3161 3161 3161 3160 3160 3160 3160 3160 3158 3157 3160 3163 3164 3166 3166 3162 3161 3163 3163 3163 3163 3162 3161 3160 3159 3158 3158 3158 3158 3158 3157 3160 3160 3160 3161 3161 3161 3162 3162 3163 3165 3165 3165 3164 3164 3163 3163 3163 3163 3163 3164 3165
3160 3160 3160 3159 3159 3159 3158 3158 3158 3157 3157 3156 3156 3155 3155 3155 3155 3156 3156 3157 3158 3158 3159 3160 3160 3161 3161 3162 3162 3161 3161 3161 3161 3160 3161 3161 3161 3161 3161 3161 3161 3160 3160 3160 3159 3159 3162 3164 3165 3167 3167 3162 3162 3165 3163 3163 3163 3161 3161 3160 3158 3158 3158 3158 3158 3158 3156 3159 3160 3160 3162 3162 3162 3163 3163 3164 3164 3165 3165 3165 3164 3164 3163 3163 3163 3164 3164 3165
3161 3161 3161 3160 3160 3159 3159 3159 3158 3158 3157 3157 3156 3156 3155 3155 3154 3155 3155 3156 3156 3157 3158 3159 3160 3160 3161 3161 3162 3161 3161 3161 3160 3160 3160 3161 3161 3161 3161 3161 3161 3161 3160 3160 3160 3160 3162 3164 3165 3166 3167 3163 3162 3165 3164 3162 3162 3161 3161 3160 3158 3157 3158 3158 3158 3158 3158 3158 3159 3159 3162 3163 3163 3163 3163 3164 3164 3164 3166 3166 3165 3164 3163 3163 3163 3164 3165 3165
3162 3162 3162 3161 3161 3160 3160 3159 3159 3158 3158 3157 3157 3156 3155 3155 3154 3154 3154 3154 3155 3156 3157 3158 3159 3160 3160 3161 3161 3161 3161 3161 3159 3159 3160 3160 3161 3161 3161 3161 3161 3161 3161 3161 3161 3161 3162 3164 3166 3166 3168 3164 3161 3164 3164 3162 3161 3160 3161 3161 3159 3158 3158 3159 3158 3159 3160 3159 3159 3160 3161 3162 3162 3163 3164 3164 3165 3165 3167 3167 3166 3165 3164 3164 3164 3164 3165 3166
3163 3163 3162 3162 3161 3161 3160 3160 3159 3159 3158 3158 3157 3156 3156 3155 3154 3154 3153 3153 3154 3155 3156 3157 3158 3159 3160 3160 3161 3161 3161 3160 3159 3160 3160 3160 3161 3161 3161 3161 3161 3162 3161 3161 3161 3161 3163 3166 3167 3167 3168 3166 3163 3164 3163 3161 3161 3161 3161 3162 3161 3160 3160 3160 3159 3159 3161 3161 3160 3161 3161 3161 3162 3162 3163 3164 3165 3166 3167 3167 3166 3165 3165 3165 3165 3165 3166 3166
3164 3164 3163 3163 3162 3162 3161 3160 3160 3159 3159 3158 3157 3157 3156 3155 3154 3154 3153 3153 3153 3154 3155 3156 3157 3158 3159 3160 3160 3161 3161 3159 3159 3160 3160 3161 3161 3161 3161 3161 3161 3162 3161 3162 3161 3162 3165 3167 3168 3168 3168 3166 3164 3164 3163 3162 3162 3162 3162 3162 3163 3162 3161 3162 3161 3160 3162 3162 3161 3160 3161 3162 3162 3162 3163 3164 3165 3167 3167 3167 3167 3166 3165 3166 3166 3166 3167 3167
3165 3165 3164 3163 3163 3162 3161 3161 3160 3160 3159 3158 3158 3157 3157 3156 3155 3154 3154 3153 3153 3154 3155 3155 3156 3157 3158 3159 3159 3161 3160 3158 3159 3160 3160 3161 3161 3161 3161 3161 3161 3162 3162 3162 3161 3164 3167 3168 3168 3168 3168 3167 3164 3164 3164 3164 3164 3164 3163 3162 3163 3164 3164 3165 3163 3162 3162 3162 3161 3161 3161 3162 3162 3162 3163 3163 3165 3168 3168 3167 3167 3166 3166 3166 3167 3166 3166 3167
3166 3165 3165 3164 3163 3163 3162 3161 3161 3160 3160 3159 3158 3158 3157 3156 3156 3155 3154 3154 3153 3154 3155 3155 3156 3156 3157 3158 3159 3161 3158 3156 3158 3160 3160 3160 3161 3161 3161 3161 3161 3161 3162 3162 3162 3165 3166 3168 3169 3168 3168 3167 3164 3165 3166 3165 3165 3165 3164 3163 3164 3165 3166 3166 3164 3162 3162 3162 3161 3161 3161 3162 3162 3162 3164 3164 3165 3168 3168 3168 3168 3167 3167 3167 3167 3166 3166 3167
3166 3166 3165 3164 3164 3163 3162 3162 3161 3160 3160 3159 3159 3158 3157 3157 3156 3155 3155 3154 3154 3154 3154 3155 3155 3156 3156 3157 3159 3160 3157 3155 3158 3159 3159 3160 3160 3161 3161 3161 3161 3161 3162 3162 3163 3165 3166 3168 3168 3167 3168 3167 3165 3166 3166 3165 3166 3166 3166 3164 3164 3165 3166 3165 3163 3162 3162 3161 3160 3160 3161 3162 3162 3163 3164 3164 3166 3168 3168 3168 3168 3167 3168 3167 3167 3167 3167 3167
3167 3166 3166 3165 3164 3163 3163 3162 3161 3161 3160 3159 3159 3158 3158 3157 3156 3156 3155 3154 3154 3154 3154 3155 3155 3156 3156 3157 3158 3158 3155 3155 3156 3157 3158 3159 3160 3160 3160 3161 3161 3161 3161 3162 3164 3166 3166 3167 3167 3166 3167 3167 3165 3165 3165 3165 3165 3166 3167 3165 3165 3166 3165 3164 3164 3162 3161 3161 3160 3160 3161 3161 3162 3163 3163 3164 3166 3168 3169 3168 3168 3168 3168 3168 3168 3168 3167 3167
3167 3167 3166 3165 3164 3164 3163 3162 3162 3161 3160 3159 3159 3158 3158 3157 3157 3156 3156 3155 3155 3154 3155 3155 3155 3156 3156 3157 3157 3155 3154 3154 3154 3156 3157 3158 3159 3160 3160 3160 3160 3160 3161 3162 3164 3166 3166 3166 3166 3165 3166 3166 3165 3165 3166 3165 3165 3166 3167 3167 3166 3166 3164 3164 3164 3163 3161 3161 3160 3160 3161 3161 3162 3162 3163 3164 3165 3166 3168 3169 3168 3168 3168 3168 3168 3168 3167 3167
3168 3167 3166 3165 3165 3164 3163 3163 3162 3161 3160 3159 3159 3158 3158 3157 3157 3156 3156 3155 3155 3155 3155 3155 3155 3156 3156 3157 3156 3153 3154 3154 3154 3155 3156 3157 3158 3159 3160 3160 3160 3160 3160 3161 3163 3164 3165 3165 3164 3165 3165 3166 3166 3166 3166 3165 3165 3166 3167 3167 3167 3166 3164 3163 3164 3163 3161 3160 3160 3161 3161 3161 3161 3162 3162 3163 3163 3164 3166 3168 3169 3168 3169 3168 3168 3168 3168 3167
3168 3167 3166 3166 3165 3164 3163 3163 3162 3161 3160 3159 3159 3158 3158 3158 3157 3157 3156 3156 3155 3155 3155 3155 3156 3156 3156 3156 3154 3154 3155 3154 3154 3155 3155 3156 3157 3158 3159 3160 3160 3160 3160 3161 3162 3162 3163 3163 3163 3164 3164 3165 3166 3165 3166 3166 3165 3165 3165 3165 3166 3165 3163 3163 3163 3162 3161 3160 3160 3160 3161 3161 3161 3161 3161 3162 3162 3163 3163 3166 3169 3169 3169 3169 3168 3169 3169 3168
3168 3167 3166 3166 3165 3164 3163 3162 3162 3161 3160 3159 3159 3158 3158 3158 3157 3157 3156 3156 3156 3155 3155 3155 3156 3156 3156 3156 3154 3154 3154 3153 3153 3154 3154 3155 3156 3157 3158 3159 3159 3159 3160 3160 3161 3162 3162 3162 3163 3163 3164 3165 3166 3165 3166 3166 3165 3165 3165 3164 3164 3163 3163 3163 3162 3161 3160 3160 3159 3160 3161 3161 3160 3160 3160 3160 3161 3163 3163 3164 3167 3169 3169 3168 3169 3169 3169 3169
3168 3167 3166 3165 3165 3164 3163 3162 3162 3161 3160 3160 3159 3158 3158 3158 3157 3157 3156 3156 3156 3156 3156 3156 3156 3156 3156 3155 3154 3153 3152 3152 3152 3152 3153 3154 3156 3157 3157 3157 3159 3159 3159 3160 3160 3161 3161 3162 3163 3163 3163 3165 3165 3165 3165 3164 3164 3164 3164 3163 3163 3162 3162 3162 3162 3160 3159 3160 3160 3160 3160 3160 3159 3160 3160 3160 3161 3162 3163 3163 3165 3169 3169 3168 3169 3169 3168 3169
3168 3167 3166 3165 3164 3164 3163 3162 3161 3161 3160 3159 3159 3159 3158 3158 3157 3157 3156 3156 3156 3156 3156 3156 3156 3155 3155 3154 3153 3152 3151 3151 3151 3151 3152 3153 3155 3157 3156 3157 3158 3159 3159 3160 3160 3161 3161 3161 3162 3163 3163 3163 3163 3164 3163 3162 3163 3163 3163 3163 3162 3160 3160 3160 3160 3160 3159 3159 3160 3160 3159 3159 3159 3160 3160 3160 3161 3161 3163 3163 3164 3168 3169 3168 3169 3169 3168 3169
3167 3166 3166 3165 3164 3163 3163 3162 3161 3160 3160 3159 3159 3159 3158 3158 3157 3157 3156 3156 3156 3156 3156 3156 3156 3155 3154 3153 3153 3153 3152 3152 3151 3151 3151 3152 3154 3155 3155 3156 3157 3158 3159 3159 3160 3161 3161 3162 3162 3163 3162 3162 3162 3162 3161 3160 3161 3162 3161 3162 3160 3158 3158 3158 3159 3160 3160 3159 3159 3159 3159 3159 3159 3159 3159 3160 3160 3160 3162 3162 3163 3167 3168 3168 3169 3169 3169 3169
3166 3166 3165 3164 3164 3163 3162 3162 3161 3160 3159 3159 3159 3158 3158 3158 3157 3156 3156 3155 3155 3155 3155 3156 3156 3155 3154 3153 3154 3154 3153 3151 3151 3150 3151 3151 3152 3153 3154 3156 3157 3158 3159 3159 3160 3160 3161 3162 3162 3162 3161 3159 3159 3159 3158 3158 3159 3159 3159 3160 3160 3158 3156 3156 3157 3159 3161 3160 3159 3159 3159 3159 3159 3159 3159 3160 3159 3160 3161 3162 3163 3166 3168 3168 3169 3169 3169 3168
3166 3165 3164 3163 3163 3162 3162 3161 3161 3160 3159 3158 3158 3158 3158 3158 3158 3157 3154 3154 3155 3154 3155 3156 3155 3154 3155 3155 3154 3153 3152 3150 3150 3151 3151 3151 3152 3153 3154 3156 3158 3158 3159 3160 3160 3160 3161 3161 3160 3160 3158 3157 3157 3157 3156 3156 3156 3157 3158 3159 3159 3157 3155 3155 3156 3158 3159 3159 3159 3158 3158 3158 3158 3158 3159 3159 3159 3159 3161 3162 3163 3166 3167 3168 3169 3169 3169 3169
3165 3164 3163 3162 3162 3161 3161 3160 3160 3159 3159 3158 3158 3158 3158 3158 3159 3157 3154 3153 3154 3153 3153 3154 3155 3155 3156 3157 3154 3152 3152 3151 3150 3151 3151 3151 3152 3154 3155 3155 3157 3158 3158 3159 3159 3159 3160 3160 3159 3158 3157 3156 3156 3156 3156 3156 3157 3157 3158 3158 3157 3156 3156 3155 3156 3156 3157 3158 3159 3158 3157 3157 3157 3158 3158 3159 3159 3159 3161 3162 3162 3165 3167 3168 3169 3169 3169 3170
3163 3163 3162 3161 3160 3160 3160 3159 3159 3159 3158 3157 3157 3157 3157 3157 3157 3156 3154 3152 3152 3152 3153 3153 3154 3155 3156 3156 3154 3152 3153 3152 3151 3151 3151 3151 3151 3153 3155 3155 3156 3157 3157 3158 3158 3158 3158 3158 3157 3157 3157 3155 3155 3156 3156 3156 3157 3158 3158 3158 3156 3154 3154 3154 3155 3156 3155 3157 3159 3159 3158 3157 3156 3157 3157 3158 3158 3159 3161 3162 3163 3165 3166 3167 3168 3168 3169 3170
3162 3161 3160 3160 3159 3159 3159 3158 3158 3158 3158 3157 3157 3156 3156 3156 3155 3154 3153 3151 3150 3151 3152 3152 3153 3154 3154 3155 3153 3151 3152 3153 3153 3152 3151 3151 3152 3153 3154 3155 3156 3156 3157 3157 3157 3156 3156 3155 3155 3156 3155 3154 3154 3155 3156 3156 3156 3157 3157 3156 3154 3153 3153 3153 3154 3154 3154 3155 3157 3157 3157 3156 3156 3157 3158 3158 3158 3158 3159 3161 3163 3165 3166 3166 3168 3168 3168 3169
3160 3159 3159 3158 3158 3157 3157 3157 3157 3157 3157 3156 3156 3155 3155 3154 3154 3153 3152 3150 3149 3148 3149 3151 3152 3152 3152 3153 3153 3151 3151 3152 3153 3152 3150 3150 3152 3153 3154 3155 3156 3155 3155 3155 3156 3155 3153 3152 3153 3154 3154 3153 3153 3154 3155 3155 3155 3155 3155 3155 3154 3153 3153 3153 3152 3152 3153 3154 3155 3156 3156 3155 3155 3156 3156 3157 3158 3158 3159 3160 3160 3161 3164 3166 3167 3167 3168 3168
3158 3157 3157 3156 3156 3156 3155 3155 3156 3156 3155 3155 3155 3154 3154 3153 3153 3153 3152 3150 3147 3146 3147 3149 3150 3150 3150 3151 3151 3151 3151 3151 3152 3152 3150 3149 3152 3153 3154 3155 3154 3154 3154 3154 3155 3154 3152 3151 3152 3153 3153 3153 3154 3154 3154 3154 3154 3153 3152 3152 3152 3152 3153 3152 3151 3152 3153 3153 3154 3155 3154 3153 3154 3155 3155 3155 3156 3157 3158 3159 3160 3159 3161 3164 3166 3166 3167 3168
3156 3155 3155 3154 3154 3154 3153 3153 3154 3154 3154 3154 3153 3153 3153 3153 3153 3152 3152 3150 3147 3145 3146 3147 3148 3147 3148 3149 3149 3150 3151 3150 3151 3151 3149 3149 3151 3152 3154 3154 3153 3153 3153 3153 3153 3153 3152 3151 3152 3152 3152 3153 3153 3153 3153 3154 3153 3151 3150 3149 3148 3149 3151 3151 3151 3151 3151 3152 3153 3153 3152 3153 3154 3155 3155 3155 3154 3155 3155 3157 3159 3158 3158 3162 3165 3166 3167 3168
3153 3152 3153 3152 3152 3152 3152 3151 3152 3153 3153 3152 3151 3152 3152 3152 3153 3152 3152 3150 3145 3144 3145 3146 3146 3146 3147 3148 3148 3150 3150 3149 3150 3150 3149 3149 3150 3151 3152 3153 3153 3152 3152 3153 3151 3150 3150 3151 3151 3151 3151 3152 3152 3151 3152 3153 3151 3149 3149 3149 3148 3147 3148 3149 3149 3149 3151 3152 3152 3152 3152 3151 3152 3154 3154 3154 3153 3153 3153 3154 3156 3156 3157 3160 3164 3166 3167 3167
3150 3150 3150 3151 3149 3150 3150 3149 3150 3151 3151 3150 3150 3151 3151 3152 3153 3152 3154 3150 3143 3142 3143 3143 3144 3145 3147 3147 3147 3149 3149 3148 3149 3148 3149 3149 3149 3151 3151 3151 3152 3152 3152 3151 3149 3148 3149 3150 3150 3150 3151 3151 3150 3149 3149 3150 3149 3148 3149 3150 3149 3148 3148 3148 3148 3148 3151 3152 3151 3150 3151 3150 3151 3153 3153 3152 3151 3150 3150 3151 3153 3155 3156 3158 3161 3164 3166 3167
3148 3147 3148 3148 3147 3147 3148 3148 3148 3149 3149 3149 3150 3151 3151 3152 3152 3152 3155 3150 3142 3140 3142 3142 3143 3144 3146 3146 3146 3148 3149 3148 3148 3147 3148 3149 3148 3149 3150 3150 3151 3151 3151 3150 3148 3147 3148 3148 3148 3149 3149 3149 3148 3148 3147 3148 3147 3148 3149 3148 3148 3149 3149 3148 3148 3149 3151 3151 3150 3149 3149 3148 3149 3151 3151 3151 3150 3149 3148 3148 3150 3153 3156 3157 3159 3161 3164 3165
3145 3145 3145 3146 3145 3145 3145 3145 3145 3147 3147 3148 3149 3149 3150 3151 3152 3153 3153 3147 3140 3138 3139 3140 3142 3143 3145 3146 3146 3147 3148 3148 3148 3147 3148 3149 3148 3148 3148 3149 3150 3149 3149 3149 3147 3147 3147 3147 3147 3147 3147 3147 3147 3146 3147 3147 3147 3148 3149 3148 3147 3147 3148 3149 3149 3150 3150 3150 3149 3149 3149 3147 3147 3149 3150 3150 3149 3148 3147 3147 3149 3152 3154 3156 3158 3160 3162 3163
3143 3142 3142 3144 3143 3143 3143 3142 3143 3145 3145 3146 3147 3148 3149 3150 3151 3151 3147 3142 3138 3137 3137 3139 3141 3142 3143 3144 3145 3145 3147 3148 3147 3147 3148 3148 3148 3148 3148 3148 3148 3148 3148 3147 3146 3146 3147 3147 3146 3146 3146 3146 3147 3147 3146 3147 3148 3148 3148 3148 3147 3146 3148 3150 3151 3152 3152 3150 3149 3149 3148 3147 3146 3147 3149 3149 3149 3148 3147 3147 3149 3151 3153 3155 3158 3160 3161 3162
3140 3140 3140 3141 3141 3141 3140 3140 3141 3143 3143 3144 3146 3147 3148 3150 3149 3147 3142 3139 3138 3136 3137 3138 3139 3141 3142 3143 3144 3144 3145 3146 3146 3146 3147 3147 3147 3148 3148 3147 3147 3147 3146 3144 3144 3144 3144 3144 3145 3145 3145 3145 3146 3146 3146 3146 3147 3148 3148 3147 3147 3149 3152 3153 3151 3151 3152 3150 3148 3147 3147 3146 3146 3147 3148 3148 3149 3149 3148 3148 3149 3151 3153 3154 3156 3158 3160 3162
3138 3137 3138 3138 3138 3139 3138 3138 3139 3140 3141 3143 3144 3145 3148 3148 3144 3142 3141 3139 3137 3135 3135 3137 3138 3140 3141 3142 3142 3143 3143 3144 3144 3145 3146 3146 3146 3146 3146 3146 3146 3146 3143 3142 3141 3140 3139 3140 3142 3143 3143 3144 3145 3144 3144 3145 3145 3147 3147 3146 3149 3153 3155 3153 3149 3147 3147 3146 3145 3146 3146 3145 3145 3147 3148 3148 3149 3149 3149 3149 3149 3150 3152 3153 3155 3157 3159 3161
3135 3135 3135 3135 3135 3135 3136 3136 3137 3138 3140 3141 3142 3144 3146 3144 3140 3139 3140 3138 3136 3135 3136 3137 3137 3138 3140 3140 3140 3141 3142 3142 3143 3144 3144 3145 3144 3144 3144 3145 3145 3144 3142 3141 3139 3136 3135 3136 3138 3141 3141 3142 3144 3143 3143 3144 3145 3145 3146 3147 3149 3152 3152 3149 3145 3144 3144 3144 3144 3145 3146 3144 3143 3145 3147 3149 3150 3151 3151 3150 3150 3150 3151 3152 3154 3156 3157 3159
3133 3132 3132 3132 3132 3132 3133 3134 3134 3136 3138 3139 3141 3142 3141 3139 3138 3138 3137 3136 3135 3134 3134 3135 3136 3137 3138 3139 3139 3139 3139 3139 3140 3142 3142 3142 3142 3142 3142 3142 3142 3143 3142 3140 3136 3133 3133 3131 3134 3138 3139 3140 3143 3143 3143 3144 3144 3144 3145 3146 3146 3147 3147 3145 3143 3143 3142 3143 3143 3143 3145 3145 3145 3146 3147 3149 3151 3151 3151 3151 3150 3150 3151 3151 3152 3154 3156 3157
3131 3130 3130 3130 3129 3130 3130 3131 3133 3134 3136 3137 3139 3138 3137 3136 3136 3136 3135 3135 3133 3131 3130 3132 3134 3135 3135 3136 3137 3137 3137 3136 3138 3140 3140 3140 3140 3139 3139 3139 3140 3141 3141 3139 3137 3135 3134 3132 3133 3138 3140 3141 3142 3143 3143 3143 3143 3143 3144 3143 3143 3144 3145 3144 3142 3141 3142 3143 3143 3142 3144 3146 3147 3148 3148 3149 3151 3151 3151 3152 3151 3151 3151 3151 3152 3153 3155 3156
3129 3128 3127 3127 3127 3128 3128 3129 3131 3132 3134 3135 3136 3135 3134 3135 3135 3134 3134 3134 3133 3130 3130 3131 3132 3133 3133 3133 3134 3135 3136 3135 3136 3137 3137 3137 3136 3136 3137 3137 3137 3138 3139 3138 3137 3136 3136 3135 3136 3139 3140 3140 3142 3142 3143 3143 3143 3143 3143 3142 3143 3143 3144 3144 3142 3141 3142 3144 3143 3141 3143 3143 3145 3148 3149 3150 3151 3152 3152 3152 3152 3152 3151 3152 3153 3153 3155 3156
3127 3127 3126 3125 3125 3126 3127 3128 3129 3131 3132 3133 3132 3132 3132 3133 3133 3133 3134 3134 3133 3132 3132 3131 3130 3131 3132 3131 3131 3132 3134 3134 3134 3135 3135 3134 3132 3132 3134 3135 3135 3137 3138 3138 3137 3137 3137 3136 3137 3139 3139 3139 3141 3142 3142 3142 3143 3143 3142 3142 3143 3143 3143 3144 3143 3141 3143 3144 3142 3141 3142 3143 3145 3149 3149 3150 3152 3152 3152 3152 3152 3152 3151 3152 3153 3153 3155 3155
3126 3126 3125 3124 3124 3125 3125 3126 3128 3129 3130 3130 3130 3130 3130 3131 3131 3131 3132 3133 3133 3132 3132 3131 3130 3130 3131 3130 3129 3129 3131 3132 3133 3133 3133 3132 3130 3130 3131 3133 3133 3135 3137 3138 3137 3136 3136 3136 3136 3137 3138 3138 3140 3141 3141 3140 3142 3143 3142 3142 3143 3142 3142 3143 3141 3140 3141 3142 3141 3141 3140 3142 3146 3149 3149 3150 3152 3151 3151 3151 3151 3151 3150 3151 3152 3153 3154 3154
3126 3125 3124 3124 3124 3124 3124 3125 3126 3127 3127 3127 3128 3129 3130 3130 3130 3130 3131 3132 3132 3131 3131 3131 3130 3130 3130 3130 3128 3126 3127 3129 3130 3131 3130 3130 3130 3129 3130 3131 3132 3133 3136 3138 3136 3135 3135 3136 3136 3137 3138 3138 3139 3139 3139 3139 3140 3142 3142 3142 3141 3141 3141 3142 3141 3139 3140 3139 3138 3138 3139 3142 3146 3148 3148 3150 3151 3150 3150 3150 3151 3150 3149 3150 3151 3152 3152 3152
3126 3126 3124 3122 3124 3124 3124 3124 3125 3125 3126 3126 3127 3128 3129 3130 3130 3129 3130 3130 3130 3130 3130 3130 3130 3129 3129 3128 3126 3125 3125 3126 3128 3129 3128 3128 3128 3128 3129 3131 3132 3132 3135 3136 3137 3136 3134 3134 3136 3137 3138 3138 3137 3137 3138 3138 3139 3140 3140 3140 3140 3141 3141 3141 3140 3139 3140 3139 3138 3139 3141 3143 3146 3147 3148 3149 3149 3149 3149 3148 3149 3149 3148 3148 3149 3151 3151 3151
3125 3126 3124 3122 3122 3124 3123 3123 3124 3125 3125 3126 3126 3127 3128 3128 3128 3128 3129 3129 3129 3129 3129 3129 3128 3127 3127 3126 3124 3124 3125 3124 3124 3126 3127 3126 3126 3127 3128 3130 3131 3132 3133 3134 3135 3136 3134 3134 3134 3134 3136 3136 3136 3136 3137 3136 3137 3139 3139 3139 3140 3140 3141 3141 3140 3140 3140 3140 3139 3139 3140 3143 3146 3146 3146 3147 3147 3147 3147 3147 3147 3148 3147 3147 3148 3149 3150 3150
3124 3124 3124 3121 3120 3122 3122 3123 3124 3124 3124 3124 3125 3126 3126 3127 3127 3126 3127 3127 3127 3128 3128 3128 3127 3127 3127 3127 3125 3124 3124 3123 3121 3123 3125 3125 3125 3126 3127 3128 3130 3131 3130 3130 3132 3134 3134 3134 3133 3133 3135 3136 3136 3137 3137 3137 3138 3139 3139 3139 3140 3139 3139 3140 3140 3140 3140 3139 3138 3138 3139 3142 3144 3145 3145 3145 3145 3146 3146 3146 3147 3147 3147 3147 3148 3149 3149 3149
3122 3122 3122 3121 3120 3121 3121 3121 3123 3123 3123 3123 3124 3124 3124 3125 3125 3125 3125 3126 3126 3126 3126 3126 3126 3126 3126 3127 3126 3124 3124 3123 3121 3120 3122 3123 3124 3125 3126 3128 3129 3130 3130 3130 3131 3132 3132 3132 3133 3134 3134 3136 3137 3137 3137 3138 3139 3139 3138 3138 3139 3139 3139 3139 3138 3139 3140 3139 3139 3139 3139 3141 3143 3144 3144 3145 3144 3145 3145 3145 3146 3146 3147 3147 3148 3148 3148 3149
3121 3121 3121 3120 3119 3120 3120 3120 3121 3121 3121 3121 3121 3121 3122 3122 3122 3122 3123 3124 3124 3125 3125 3124 3125 3125 3125 3126 3125 3125 3125 3124 3122 3121 3122 3123 3123 3124 3126 3127 3128 3130 3131 3130 3131 3132 3132 3131 3133 3134 3133 3135 3137 3137 3138 3138 3138 3138 3138 3137 3138 3139 3140 3139 3139 3140 3140 3139 3140 3140 3140 3142 3142 3142 3143 3143 3143 3143 3143 3144 3145 3144 3145 3146 3147 3147 3147 3148
3120 3120 3121 3121 3119 3119 3119 3119 3120 3120 3119 3119 3119 3120 3120 3120 3120 3120 3121 3121 3122 3123 3123 3123 3123 3124 3124 3124 3124 3124 3124 3124 3124 3123 3123 3123 3123 3124 3125 3126 3128 3130 3130 3130 3131 3132 3131 3130 3131 3133 3133 3135 3137 3137 3138 3138 3137 3138 3138 3137 3137 3138 3139 3139 3140 3140 3140 3140 3140 3140 3141 3142 3143 3142 3142 3143 3143 3142 3142 3142 3143 3142 3143 3144 3145 3146 3146 3147
3119 3120 3121 3122 3120 3119 3120 3120 3120 3120 3119 3120 3119 3119 3119 3119 3119 3118 3118 3119 3120 3121 3121 3121 3122 3122 3122 3123 3123 3123 3123 3124 3124 3123 3123 3123 3122 3122 3123 3124 3126 3128 3129 3130 3132 3132 3131 3129 3129 3131 3132 3134 3136 3137 3137 3138 3137 3137 3136 3136 3136 3136 3138 3139 3139 3139 3140 3140 3139 3139 3140 3142 3142 3143 3143 3142 3142 3142 3141 3141 3141 3141 3141 3143 3144 3145 3145 3145
3117 3117 3118 3119 3118 3118 3119 3119 3118 3117 3118 3119 3118 3118 3117 3117 3117 3117 3116 3117 3118 3119 3119 3119 3120 3120 3120 3121 3122 3122 3122 3123 3123 3123 3123 3123 3122 3121 3122 3123 3125 3127 3128 3130 3131 3132 3131 3130 3129 3130 3131 3132 3134 3135 3135 3136 3136 3135 3134 3134 3134 3135 3136 3138 3139 3139 3139 3139 3138 3139 3140 3140 3141 3142 3142 3142 3143 3143 3141 3140 3139 3140 3140 3141 3142 3143 3143 3143
3115 3114 3113 3113 3113 3113 3114 3114 3114 3115 3116 3117 3116 3116 3116 3116 3116 3116 3115 3115 3116 3117 3118 3117 3118 3119 3119 3120 3121 3121 3121 3121 3122 3123 3124 3123 3122 3121 3121 3122 3123 3125 3127 3128 3130 3130 3130 3129 3129 3129 3128 3130 3132 3133 3133 3134 3134 3133 3132 3132 3133 3133 3135 3136 3137 3138 3138 3138 3138 3138 3139 3139 3140 3140 3141 3141 3141 3141 3141 3140 3140 3139 3140 3140 3141 3141 3141 3141
3112 3110 3109 3110 3110 3110 3110 3110 3112 3114 3114 3115 3114 3114 3114 3114 3114 3114 3114 3114 3114 3115 3116 3116 3116 3117 3118 3118 3119 3119 3120 3120 3121 3121 3122 3122 3122 3122 3122 3121 3121 3123 3124 3126 3127 3128 3128 3128 3129 3129 3127 3128 3130 3132 3132 3132 3131 3131 3131 3132 3132 3132 3133 3135 3136 3137 3137 3137 3137 3137 3138 3138 3138 3138 3139 3139 3139 3139 3140 3141 3140 3139 3138 3139 3139 3139 3139 3139
3107 3107 3107 3108 3108 3109 3109 3109 3111 3113 3113 3113 3113 3113 3113 3113 3113 3113 3112 3112 3113 3113 3114 3115 3115 3116 3116 3116 3116 3117 3118 3120 3120 3120 3121 3120 3119 3120 3119 3119 3120 3121 3122 3124 3125 3126 3127 3127 3127 3128 3127 3128 3130 3130 3131 3131 3130 3130 3130 3131 3132 3132 3133 3134 3135 3136 3136 3137 3137 3137 3137 3137 3137 3137 3137 3137 3138 3138 3139 3140 3139 3137 3137 3138 3138 3138 3138 3137
3105 3106 3106 3106 3106 3107 3108 3109 3110 3111 3111 3111 3111 3111 3111 3111 3111 3112 3111 3110 3111 3112 3112 3113 3113 3113 3113 3114 3114 3115 3116 3118 3117 3117 3117 3117 3115 3115 3115 3116 3117 3118 3119 3121 3123 3123 3125 3125 3125 3127 3127 3127 3128 3129 3130 3131 3130 3129 3129 3130 3131 3133 3134 3135 3135 3136 3136 3136 3137 3136 3136 3136 3136 3136 3137 3137 3137 3137 3137 3137 3137 3136 3136 3137 3136 3136 3136 3136